SKYSAT-C6 (42992 NORAD) Tracking and Keplerian Element Data

This shows tracking and keplerian element data for the satellite.

Feedback or suggestion? Click here.




ElementValue
Catalog42992
NameSKYSAT-C6
Epoch Orbit7710
Epoch Day82.1232045
Epoch Year2019
RAAN197.345
Inclination97.4216
Eccentricity0.0009965
Argument of Perigee286.3555
Mean Anonmoly168.4393
Mean Motion15.2167201
Decay Rate7.77E-06
L11 42992U 17068F 19082.12320450 .00000777 00000-0 37404-4 0 9998
L22 42992 97.4216 197.3450 0009965 286.3555 168.4393 15.21672010 77103

Live tracking and technical data element details for SKYSAT-C6 (NORAD 42992). SKYSAT-C6 can be tracked NOW for your location showing map with azimuth and elevation plus other details from your city location.

Track the satellite on the map from your city or location and see movement details for azimuth, elevation, latitude, longitude, range, height, and movement on the map or in text.







IsCatalogInMostPopularTable: catalog: 42992, numindb: 218
Update: records affected: 1



GetName: 42992 SKYSAT-C6

Hit Count: updated at: Sun, 24 Mar 2019 08:39:01 GMT